Regional Weather Roundup
Issued by NWS

Home | Current Version | Previous Version | Text Only | Print | Product List | Glossary Off
Versions: 1 2 3 4 5 6 7 8 9 10 11 12 13 14 15 16 17 18 19 20 21 22 23 24 25 26 27 28 29 30 31 32 33 34 35 36 37 38 39 40 41 42 43 44 45 46 47 48 49 50

770
ASUS43 KMKX 121859
RWRWI

WISCONSIN REGIONAL WEATHER ROUNDUP
NATIONAL WEATHER SERVICE MILWAUKEE/SULLIVAN WI
100 PM CST FRI FEB 12 2016

NOTE: "FAIR" INDICATES FEW OR NO CLOUDS BELOW 12,000 FEET WITH NO
SIGNIFICANT WEATHER AND/OR OBSTRUCTIONS TO VISIBILITY.

WIZ001-002-006>008-014>016-023>028-122000-
NORTHWEST WISCONSIN

CITY           SKY/WX    TMP DP  RH WIND       PRES   REMARKS
SUPERIOR ARPT  SUNNY      3 -15  44 N17G25    30.45R WCI -17
ASHLAND        CLOUDY     2  -8  63 NW15G25   30.38R HAZE    WCI -17
HAYWARD        SUNNY      4 -14  43 N8G23     30.34R WCI  -9
SIREN          SUNNY      6 -13  40 N17G23    30.40R WCI -13
CUMBERLAND     SUNNY      5 -13  43 NW16G25   30.34R WCI -14
RICE LAKE      SUNNY      7 -13  40 NW12G20   30.35S WCI  -9
CHETEK         SUNNY      7 -10  44 MISG      30.34R
LADYSMITH      SUNNY      6  -9  50 NW24      30.30R WCI -16
EAU CLAIRE     NOT AVBL
MENOMONIE      SUNNY     12  -7  42 NW16G24   30.36R WCI  -5
NEW RICHMOND   SUNNY      8  -8  47 NW18G24   30.40R WCI -11
OSCEOLA        SUNNY      8 -10  44 NW21G26   30.45R WCI -12
$$

WIZ003>005-009-010-017-018-122000-
NORTH CENTRAL WISCONSIN

CITY           SKY/WX    TMP DP  RH WIND       PRES   REMARKS
MANITOWISH WTR LGT SNOW   0  -7  70 NW23G31   30.18R VSB 3/4 WCI -23
ARBOR VITAE    LGT SNOW   3  -6  66 NW18G25   30.17R VSB 1   WCI -17
WOODRUFF       LGT SNOW   3  -6  66 NW18G25   30.17R VSB 1   WCI -17
RHINELANDER    PTSUNNY    4 -10  52 NW17G30   30.14R WCI -16
EAGLE RIVER    SNOW       3  -5  68 NW24G30   30.13R VSB 1/2 WCI -20
LAND O LAKES   LGT SNOW   4  -5  66 N21G28    30.13R VSB 1   WCI -18
PHILLIPS       PTSUNNY    3 -11  51 N13G22    30.21S WCI -14
TOMAHAWK       CLOUDY     6 -11  46 NW16G25   30.18R WCI -12
MEDFORD        MOSUNNY    6  -8  52 N15G25    30.18S HAZE    WCI -11
MERRILL        PTSUNNY    9 -10  42 NW16G23   30.18R WCI  -8
$$

WIZ029-030-035-036-043>047-122000-
CENTRAL WISCONSIN

CITY           SKY/WX    TMP DP  RH WIND       PRES   REMARKS
WAUSAU         PTSUNNY   10  -8  44 NW17G25   30.17R WCI  -8
MOSINEE        PTSUNNY    9  -4  56 NW20G30   30.18S WCI -11
MARSHFIELD     PTSUNNY    9  -5  53 NW26G32   30.20R WCI -13
STEVENS POINT  PTSUNNY    9  -8  45 NW17G26   30.18S WCI  -9
WAUPACA        MOSUNNY   17  -5  36 NW18G25   30.17S WCI   1
WAUTOMA        NOT AVBL
WISC RAPIDS    PTSUNNY   11  -6  46 NW18G30   30.22R WCI  -7
CAMP DOUGLAS   NOT AVBL
$$

WIZ011>013-019>022-031-037>040-048>050-122000-
NORTHEAST WISCONSIN

CITY           SKY/WX    TMP DP  RH WIND       PRES   REMARKS
ANTIGO         PTSUNNY    7  -7  52 NW16G25   30.11R WCI -11
SHAWANO        CLOUDY    15  -3  45 NW15G23   30.15R WCI   0
OCONTO         CLOUDY    14  -5  43 NW13G20   30.12R WCI   0
STURGEON BAY   PTSUNNY   12   3  67 NW17G29   30.11R WCI  -5
GREEN BAY      CLOUDY    14   0  53 NW20G28   30.14R WCI  -3
MANITOWOC      NOT AVBL
APPLETON       PTSUNNY   14  -6  41 NW20G29   30.13R WCI  -3
CLINTONVILLE   CLOUDY    14  -6  41 NW21G26   30.16R WCI  -4
OSHKOSH        SUNNY     14  -3  47 NW23G32   30.15R WCI  -5
$$

WIZ032>034-041-042-053>061-122000-
SOUTHWEST WISCONSIN

CITY           SKY/WX    TMP DP  RH WIND       PRES   REMARKS
LA CROSSE      SUNNY     14   0  53 NW25      30.32R WCI  -5
SPARTA         SUNNY     15   0  50 NW20      30.28S WCI  -2
VIROQUA        PTSUNNY   14   0  54 NW23      30.24R WCI  -5
BOSCOBEL       SUNNY     18   0  45 NW14G24   30.29S WCI   4
PRAIRIE DU CHI SUNNY     17   1  48 NW16G23   30.31S WCI   2
PLATTEVILLE    SUNNY     17   6  61 NW15      30.24S WCI   3
$$

WIZ056-057-062-063-064-067-068-122000-
SOUTH CENTRAL WISCONSIN

CITY           SKY/WX    TMP DP  RH WIND       PRES   REMARKS
REEDSBURG      SUNNY     15  -2  46 NW16G28   30.22R WCI   0
BARABOO/DELLS  MOSUNNY   17  -4  39 NW20G26   30.20R WCI   0
LONE ROCK      NOT AVBL
MINERAL POINT  MOSUNNY   21   1  42 NW17G23   30.20F WCI   7
MADISON        MOSUNNY   17  -1  45 NW15G26   30.18F WCI   2
MIDDLETON      MOSUNNY   19   0  43 NW20G29   30.19F WCI   4
WATERTOWN      MOSUNNY   17   1  48 NW21      30.15F WCI   0
MONROE         PTSUNNY   21   7  53 W18G25    30.18S WCI   6
JANESVILLE     MOSUNNY   23   3  42 NW21G26   30.18S WCI   8
$$

WIZ051-052-058>065-066-070>072-122000-
SOUTHEAST WISCONSIN

CITY           SKY/WX    TMP DP  RH WIND       PRES   REMARKS
MILWAUKEE      MOSUNNY   20   0  41 NW18      30.13F WCI   5
WAUKESHA       CLOUDY    18   1  49 W21G28    30.14S WCI   1
MILWAUKEE/TIMM PTSUNNY   19   1  45 NW16G24   30.14S WCI   5
RACINE         MOSUNNY   20   1  43 NW22G30   30.14F WCI   3
BURLINGTON     PTSUNNY   19   4  53 W21G26    30.14F WCI   2
KENOSHA        PTSUNNY   20   5  52 NW17G31   30.13F WCI   5
FOND DU LAC    MOSUNNY   15  -1  49 NW22G32   30.15R WCI  -3
SHEBOYGAN      CLOUDY    16   0  49 NW23G29   30.12R WCI  -2
WEST BEND      SUNNY     16  -4  41 NW23G33   30.12S WCI  -2
JUNEAU         MOSUNNY   15  -2  46 NW13G23   30.15S WCI   2
$$

LSZ147-162-122000-
LAKE SUPERIOR

STATION/POSITION TIME  TEMP    WIND        PRES    WAVE
                       AIR SEA DIR/SP/G            HT/PER
                 (UTC) (F)     (DEG/KT/KT) (MB)    (FT/S)
DEVILS ISLAND    1800    0     330/ 24/ 29 1030.3R
PORT WING        1800    2     320/ 16/ 21 1029.5
SAXON HARBOR     1840    3                 1027.4R
$$

LMZ867-665-643>646-122000-
LAKE MICHIGAN

STATION/POSITION TIME  TEMP    WIND        PRES    WAVE
                       AIR SEA DIR/SP/G            HT/PER
                 (UTC) (F)     (DEG/KT/KT) (MB)    (FT/S)
CHAMBERS ISLAND  1800   16     300/ 12/ 21 1018.6R
SISTER BAY       1820   14     360/ 26/ 30   N/A
ALGOMA LAKESHORE 1811          320/ 19/ 27   N/A
KEWAUNEE LAKESHO 1800   15     320/ 15/ 23 1018.2R
SHEBOYGAN LAKESH 1800   16     290/ 21/ 27 1021.2R
PORT WASHINGTON  1840   18     290/ 15/ 23 1021.0F
MILWAUKEE LAKESH 1810   18     310/ 16/ 20   N/A
KENOSHA   LAKESH 1800   18     310/ 17/ 23 1020.7S
$$

TC  - TEMPERATURE IN CELSIUS
VSB - VISIBILITY IN STATUTE MILES
WCI - WIND CHILL INDEX
HX  - HEAT INDEX





USA.gov is the U.S. government's official web portal to all federal, state and local government web resources and services.